Location: Unspecified
(48.5670°N, 0.0000°E)
Time: 21:01:43
(UTC+00:00)

Transit 4A - All Passes

Search period start: 22 October 2019 00:00
Search period end: 01 November 2019 00:00
Orbit: 867 x 978 km, 66.8° (Epoch: 21 October)

Date Brightness Start Highest point End Pass type
(mag) Time Alt. Az. Time Alt. Az. Time Alt. Az.
22 Oct - 02:39:11 10° SE 02:42:11 14° ESE 02:45:09 10° ENE visible
22 Oct - 04:21:13 10° SSW 04:27:31 71° ESE 04:33:42 10° NE visible
22 Oct - 06:08:48 10° W 06:14:24 32° NW 06:19:54 10° NNE daylight
22 Oct - 07:59:18 10° NW 08:02:47 15° NNW 08:06:14 10° NNE daylight
22 Oct - 09:48:12 10° NNW 09:51:51 16° NNE 09:55:26 10° NE daylight
22 Oct - 11:34:28 10° NNW 11:40:04 37° NE 11:45:30 10° ESE daylight
22 Oct - 13:20:51 10° NW 13:26:41 54° WSW 13:32:20 10° SSE daylight
23 Oct - 02:46:42 10° SSE 02:51:11 20° ESE 02:55:35 10° ENE visible
23 Oct - 04:30:29 10° SW 04:36:51 86° NW 04:43:05 10° NE visible
23 Oct - 06:18:53 10° W 06:24:04 26° NNW 06:29:10 10° NNE daylight
23 Oct - 08:09:33 10° NW 08:12:43 14° N 08:15:50 10° NNE daylight
23 Oct - 09:57:38 10° NNW 10:01:43 18° NNE 10:05:43 10° ENE daylight
23 Oct - 11:43:45 10° NNW 11:49:37 48° NE 11:55:18 10° ESE daylight
23 Oct - 13:30:24 10° NW 13:35:52 38° WSW 13:41:10 10° S daylight
24 Oct - 02:54:55 10° SSE 03:00:14 29° ESE 03:05:30 10° NE visible
24 Oct - 04:39:57 10° SW 04:46:14 65° NW 04:52:24 10° NNE visible
24 Oct - 06:29:06 10° WNW 06:33:48 22° NNW 06:38:27 10° NNE daylight
24 Oct - 08:19:38 10° NNW 08:22:39 14° N 08:25:39 10° NNE daylight
24 Oct - 10:06:58 10° NNW 10:11:31 21° NNE 10:15:57 10° ENE daylight
24 Oct - 11:53:05 10° NNW 11:59:05 65° NE 12:04:54 10° SE daylight
24 Oct - 13:40:08 10° NW 13:44:57 26° WSW 13:49:42 10° SSW daylight
25 Oct - 03:03:32 10° S 03:09:23 41° ESE 03:15:09 10° NE visible
25 Oct - 04:49:37 10° WSW 04:55:43 49° NW 05:01:43 10° NNE visible
25 Oct - 06:39:24 10° WNW 06:43:37 18° NNW 06:47:47 10° NNE daylight
25 Oct - 08:29:30 10° NNW 08:32:36 14° N 08:35:40 10° NE daylight
25 Oct - 10:16:16 10° NNW 10:21:16 26° NNE 10:26:07 10° E daylight
25 Oct - 12:02:25 10° NW 12:08:28 88° NE 12:14:20 10° SE daylight
25 Oct - 13:50:09 10° WNW 13:53:59 18° WSW 13:57:46 10° SW daylight
26 Oct - 01:32:44 10° ESE 01:33:29 10° E 01:34:13 10° E visible
26 Oct - 03:12:25 10° SSW 03:18:36 57° ESE 03:24:41 10° NE visible
26 Oct - 04:59:27 10° WSW 05:05:16 38° NW 05:10:59 10° NNE visible
26 Oct - 06:49:44 10° NW 06:53:29 16° NNW 06:57:10 10° NNE daylight
26 Oct - 08:39:09 10° NNW 08:42:32 15° NNE 08:45:51 10° NE daylight
26 Oct - 10:25:34 10° NNW 10:30:56 32° NE 10:36:09 10° E daylight
26 Oct - 12:11:50 10° NW 12:17:46 67° WSW 12:23:33 10° SSE daylight
26 Oct - 14:01:00 10° W 14:02:57 12° W 14:04:52 10° WSW daylight
27 Oct - 01:38:48 10° SE 01:42:26 16° ESE 01:46:02 10° ENE visible
27 Oct - 03:21:34 10° SSW 03:27:53 79° ESE 03:34:06 10° NE visible
27 Oct - 05:09:27 10° W 05:14:54 30° NW 05:20:15 10° NNE visible
27 Oct - 07:00:04 10° NW 07:03:23 15° N 07:06:40 10° NNE daylight
27 Oct - 08:48:39 10° NNW 08:52:25 17° NNE 08:56:08 10° NE daylight
27 Oct - 10:34:50 10° NNW 10:40:32 41° NE 10:46:03 10° ESE daylight
27 Oct - 12:21:18 10° NW 12:27:00 47° WSW 12:32:33 10° S daylight
28 Oct - 01:46:39 10° SSE 01:51:27 23° ESE 01:56:13 10° ENE visible
28 Oct - 03:30:55 10° SW 03:37:15 78° NW 03:43:27 10° NNE visible
28 Oct - 05:19:35 10° W 05:24:35 24° NNW 05:29:31 10° NNE visible
28 Oct - 07:10:16 10° NW 07:13:19 14° N 07:16:20 10° NNE daylight
28 Oct - 08:58:02 10° NNW 09:02:16 19° NNE 09:06:25 10° ENE daylight
28 Oct - 10:44:08 10° NNW 10:50:03 54° NE 10:55:47 10° SE daylight
28 Oct - 12:30:55 10° NW 12:36:09 33° WSW 12:41:16 10° S daylight
29 Oct - 01:55:01 10° S 02:00:33 33° ESE 02:06:01 10° NE visible
29 Oct - 03:40:27 10° SW 03:46:40 58° NW 03:52:47 10° NNE visible
29 Oct - 05:29:50 10° WNW 05:34:21 20° NNW 05:38:49 10° NNE visible
29 Oct - 07:20:16 10° NNW 07:23:16 14° N 07:26:13 10° NNE daylight
29 Oct - 09:07:22 10° NNW 09:12:03 23° NNE 09:16:38 10° E daylight
29 Oct - 10:53:27 10° NNW 10:59:29 73° NE 11:05:19 10° SE daylight
29 Oct - 12:40:43 10° WNW 12:45:14 23° WSW 12:49:40 10° SSW daylight
30 Oct - 02:03:44 10° S 02:09:44 46° ESE 02:15:36 10° NE visible
30 Oct - 03:50:11 10° WSW 03:56:11 44° NW 04:02:03 10° NNE visible
30 Oct - 05:40:10 10° WNW 05:44:11 17° NNW 05:48:09 10° NNE visible
30 Oct - 07:30:03 10° NNW 07:33:12 14° N 07:36:18 10° NE daylight
30 Oct - 09:16:39 10° NNW 09:21:46 27° NE 09:26:46 10° E daylight
30 Oct - 11:02:49 10° NW 11:08:50 83° WSW 11:14:41 10° SSE daylight
30 Oct - 12:50:56 10° WNW 12:54:14 15° WSW 12:57:30 10° SW daylight
31 Oct - 00:31:25 10° ESE 00:33:43 12° E 00:36:00 10° E visible
31 Oct - 02:12:43 10° SSW 02:18:58 65° ESE 02:25:05 10° NE visible
31 Oct - 04:00:05 10° WSW 04:05:46 34° NW 04:11:20 10° NNE visible
31 Oct - 05:50:31 10° NW 05:54:04 15° NNW 05:57:34 10° NNE visible
31 Oct - 07:39:38 10° NNW 07:43:07 15° NNE 07:46:32 10° NE daylight
31 Oct - 09:25:56 10° NNW 09:31:24 35° NE 09:36:44 10° ESE daylight
31 Oct - 11:12:15 10° NW 11:18:07 59° WSW 11:23:49 10° SSE daylight
